TimeCDT,TemperatureF,Dew PointF,Humidity,Sea Level PressureIn,VisibilityMPH,Wind Direction,Wind SpeedMPH,Gust SpeedMPH,PrecipitationIn,Events,Conditions,WindDirDegrees,DateUTC
12:13 AM,42.8,41.0,93,29.83,10.0,NNW,10.4,16.1,N/A,,Overcast,330,2012-10-25 05:13:00
12:32 AM,42.8,41.0,93,29.83,10.0,NNW,6.9,-,N/A,,Drizzle,330,2012-10-25 05:32:00
12:53 AM,42.8,39.2,87,29.83,10.0,NNW,6.9,17.3,N/A,,Overcast,330,2012-10-25 05:53:00
1:12 AM,42.8,39.2,87,29.82,10.0,NW,9.2,-,N/A,,Overcast,320,2012-10-25 06:12:00
1:33 AM,41.0,41.0,100,29.81,10.0,NNW,6.9,-,N/A,,Overcast,330,2012-10-25 06:33:00
1:53 AM,41.0,39.2,93,29.79,10.0,North,6.9,-,N/A,,Overcast,360,2012-10-25 06:53:00
2:12 AM,41.0,39.2,93,29.80,10.0,NNW,5.8,-,N/A,,Overcast,330,2012-10-25 07:12:00
2:33 AM,41.0,39.2,93,29.79,10.0,NW,9.2,-,N/A,,Overcast,320,2012-10-25 07:33:00
2:53 AM,41.0,39.2,93,29.78,10.0,NNW,5.8,-,N/A,Rain,Light Rain,330,2012-10-25 07:53:00
3:12 AM,41.0,39.2,93,29.77,10.0,NNW,8.1,-,N/A,Rain,Light Rain,340,2012-10-25 08:12:00
3:33 AM,41.0,39.2,93,29.74,10.0,North,4.6,17.3,N/A,,Light Drizzle,360,2012-10-25 08:33:00
3:53 AM,41.0,39.2,93,29.76,7.0,NW,8.1,-,N/A,,Light Drizzle,320,2012-10-25 08:53:00
4:12 AM,41.0,39.2,93,29.75,7.0,North,5.8,-,0.01,Rain,Rain,350,2012-10-25 09:12:00
4:33 AM,41.0,39.2,93,29.75,10.0,NW,6.9,-,0.02,Rain,Light Rain,320,2012-10-25 09:33:00
4:53 AM,41.0,39.2,93,29.77,7.0,NW,6.9,-,0.04,Rain,Rain,320,2012-10-25 09:53:00
5:12 AM,41.0,39.2,93,29.75,10.0,NNW,9.2,-,0.03,Rain,Rain,330,2012-10-25 10:12:00
5:33 AM,39.2,39.2,100,29.73,10.0,NNW,5.8,-,0.04,Rain,Light Rain,340,2012-10-25 10:33:00
5:52 AM,39.2,39.2,100,29.74,10.0,NW,10.4,16.1,0.04,Rain,Rain,320,2012-10-25 10:52:00
6:12 AM,39.2,39.2,100,29.73,7.0,NNW,5.8,-,N/A,Rain,Light Rain,330,2012-10-25 11:12:00
6:33 AM,39.2,37.4,93,29.73,7.0,NNW,9.2,19.6,0.03,Rain,Rain,330,2012-10-25 11:33:00
6:52 AM,39.2,37.4,93,29.73,7.0,NW,11.5,16.1,0.06,Rain,Rain,310,2012-10-25 11:52:00
7:13 AM,37.4,35.6,93,29.73,10.0,NW,12.7,18.4,0.01,Rain,Rain,310,2012-10-25 12:13:00
7:33 AM,35.6,35.6,100,29.74,4.0,NW,11.5,21.9,0.05,Rain,Rain,320,2012-10-25 12:33:00
7:52 AM,35.6,33.8,93,29.74,4.0,NW,9.2,17.3,0.07,Rain,Rain,310,2012-10-25 12:52:00
8:13 AM,33.8,33.8,100,29.74,3.0,NW,8.1,16.1,N/A,Snow,Light Snow,320,2012-10-25 13:13:00
8:32 AM,33.8,32.0,93,29.73,1.5,NW,5.8,-,N/A,Snow,Light Snow,320,2012-10-25 13:32:00
9:13 AM,33.8,32.0,93,29.70,1.2,NW,6.9,-,0.03,Snow,Light Snow,320,2012-10-25 14:13:00
9:33 AM,32.0,32.0,100,29.72,1.2,NW,6.9,-,0.04,Snow,Light Snow,310,2012-10-25 14:33:00
9:53 AM,33.8,32.0,93,29.71,2.0,NW,6.9,-,0.06,Snow,Light Snow,320,2012-10-25 14:53:00
10:13 AM,32.0,32.0,100,29.70,1.0,NW,10.4,-,0.02,Snow,Light Snow,320,2012-10-25 15:13:00
10:32 AM,33.8,32.0,93,29.71,1.5,NW,8.1,16.1,N/A,Snow,Light Snow,320,2012-10-25 15:32:00
10:53 AM,33.8,32.0,93,29.71,1.0,NW,9.2,18.4,0.05,Snow,Light Snow,310,2012-10-25 15:53:00
11:12 AM,33.8,32.0,93,29.71,1.2,NW,9.2,16.1,0.01,Snow,Light Snow,320,2012-10-25 16:12:00
11:33 AM,33.8,32.0,93,29.70,1.2,NW,8.1,18.4,N/A,Snow,Light Snow,320,2012-10-25 16:33:00
11:53 AM,33.8,32.0,93,29.71,1.8,NW,8.1,17.3,0.02,Snow,Light Snow,310,2012-10-25 16:53:00
12:12 PM,33.8,32.0,93,29.71,1.8,NW,12.7,19.6,0.01,Snow,Light Snow,310,2012-10-25 17:12:00
12:33 PM,33.8,32.0,93,29.70,1.2,NW,11.5,17.3,0.01,Snow,Light Snow,310,2012-10-25 17:33:00
12:53 PM,33.8,32.0,93,29.71,2.0,WNW,8.1,-,0.01,Snow,Light Snow,300,2012-10-25 17:53:00
1:12 PM,33.8,32.0,93,29.71,1.8,WNW,10.4,18.4,0.01,Snow,Light Snow,300,2012-10-25 18:12:00
1:33 PM,33.8,32.0,93,29.71,1.5,NW,9.2,16.1,N/A,Snow,Light Snow,320,2012-10-25 18:33:00
1:53 PM,33.8,32.0,93,29.71,2.0,NW,9.2,17.3,0.01,Snow,Light Snow,310,2012-10-25 18:53:00
2:12 PM,33.8,32.0,93,29.72,2.0,WNW,8.1,17.3,0.01,Snow,Light Snow,300,2012-10-25 19:12:00
2:33 PM,33.8,32.0,93,29.72,1.8,WNW,6.9,17.3,0.01,Snow,Light Snow,300,2012-10-25 19:33:00
2:53 PM,33.8,32.0,93,29.71,1.8,WNW,9.2,-,0.01,Snow,Light Snow,300,2012-10-25 19:53:00
3:12 PM,33.8,32.0,93,29.72,2.0,WNW,10.4,17.3,N/A,Snow,Light Snow,290,2012-10-25 20:12:00
3:33 PM,33.8,32.0,93,29.74,4.0,WNW,9.2,-,N/A,Snow,Light Snow,290,2012-10-25 20:33:00
3:53 PM,33.8,32.0,93,29.74,7.0,WNW,11.5,16.1,N/A,Snow,Light Snow,290,2012-10-25 20:53:00
4:12 PM,33.8,32.0,93,29.75,5.0,WNW,10.4,18.4,N/A,Snow,Light Snow,290,2012-10-25 21:12:00
4:33 PM,33.8,30.2,87,29.75,10.0,WNW,10.4,21.9,N/A,,Overcast,290,2012-10-25 21:33:00
4:52 PM,33.8,30.2,87,29.76,10.0,WNW,10.4,21.9,N/A,,Overcast,290,2012-10-25 21:52:00
5:13 PM,33.8,30.2,87,29.77,10.0,WNW,9.2,19.6,N/A,,Overcast,290,2012-10-25 22:13:00
5:33 PM,33.8,30.2,87,29.77,10.0,WNW,10.4,16.1,N/A,,Overcast,290,2012-10-25 22:33:00
5:52 PM,33.8,30.2,87,29.77,10.0,WNW,11.5,16.1,N/A,,Overcast,290,2012-10-25 22:52:00
6:13 PM,33.8,30.2,87,29.78,10.0,West,10.4,-,N/A,,Overcast,280,2012-10-25 23:13:00
6:33 PM,33.8,30.2,87,29.79,10.0,West,10.4,-,N/A,,Overcast,280,2012-10-25 23:33:00
6:52 PM,33.8,30.2,87,29.80,10.0,West,12.7,16.1,N/A,,Overcast,280,2012-10-25 23:52:00
7:13 PM,33.8,30.2,87,29.81,10.0,West,11.5,17.3,N/A,,Overcast,270,2012-10-26 00:13:00
7:33 PM,33.8,30.2,87,29.82,10.0,West,8.1,21.9,N/A,,Overcast,270,2012-10-26 00:33:00
7:52 PM,33.8,30.2,87,29.82,10.0,West,10.4,16.1,N/A,,Overcast,270,2012-10-26 00:52:00
8:13 PM,33.8,30.2,87,29.83,10.0,West,9.2,-,N/A,,Overcast,280,2012-10-26 01:13:00
8:33 PM,33.8,30.2,87,29.84,10.0,West,10.4,17.3,N/A,,Overcast,270,2012-10-26 01:33:00
8:52 PM,33.8,30.2,87,29.84,10.0,West,11.5,18.4,N/A,,Overcast,280,2012-10-26 01:52:00
9:13 PM,33.8,28.4,81,29.85,10.0,West,11.5,17.3,N/A,,Overcast,270,2012-10-26 02:13:00
9:32 PM,33.8,28.4,81,29.85,10.0,West,11.5,17.3,N/A,,Overcast,270,2012-10-26 02:32:00
9:53 PM,33.8,30.2,87,29.85,10.0,West,9.2,-,N/A,,Overcast,270,2012-10-26 02:53:00
10:12 PM,33.8,28.4,81,29.86,10.0,West,10.4,16.1,N/A,,Overcast,280,2012-10-26 03:12:00
10:31 PM,33.8,28.4,81,29.86,10.0,West,10.4,-,N/A,,Overcast,270,2012-10-26 03:31:00
10:53 PM,33.8,28.4,81,29.86,10.0,West,9.2,-,N/A,,Overcast,270,2012-10-26 03:53:00
11:13 PM,32.0,28.4,87,29.87,10.0,West,9.2,-,N/A,,Overcast,260,2012-10-26 04:13:00
11:32 PM,33.8,28.4,81,29.86,10.0,West,9.2,19.6,N/A,,Overcast,260,2012-10-26 04:32:00
11:53 PM,33.8,28.4,81,29.86,10.0,WSW,13.8,21.9,N/A,,Overcast,250,2012-10-26 04:53:00